| time (UTC) | temp F | wind direction | speed knots | gust knots | rain 1hr in | rain 24hr in | rain mn in | humidity % | barometer mb |
| 20260509002135 | 57 | 223 | 1.7 | 5.2 | 0.00 | 0.00 | 0.00 | 80 | 1007.1 |
| 20260509001135 | 58 | 228 | 1.7 | 6.1 | 0.00 | 0.00 | 0.00 | 79 | 1007.1 |
| 20260508235059 | 59 | 230 | 1.7 | 5.2 | 0.00 | 0.00 | 0.00 | 78 | 1007.1 |
| 20260508234027 | 59 | 231 | 2.6 | 5.2 | 0.00 | 0.00 | 0.00 | 76 | 1007.1 |
| 20260508233026 | 59 | 222 | 2.6 | 8.7 | 0.00 | 0.00 | 0.00 | 75 | 1007.1 |
| 20260508231922 | 60 | 217 | 3.5 | 8.7 | 0.00 | 0.00 | 0.00 | 74 | 1007.1 |
| 20260508230919 | 60 | 216 | 3.5 | 7.8 | 0.00 | 0.00 | 0.00 | 73 | 1007.1 |
| 20260508225917 | 60 | 227 | 3.5 | 7.8 | 0.00 | 0.00 | 0.00 | 72 | 1007.1 |
| 20260508224915 | 60 | 226 | 2.6 | 7.0 | 0.00 | 0.00 | 0.00 | 73 | 1007.1 |
| 20260508223914 | 60 | 216 | 3.5 | 7.0 | 0.00 | 0.00 | 0.00 | 73 | 1007.5 |
| 20260508222913 | 60 | 222 | 2.6 | 6.1 | 0.00 | 0.00 | 0.00 | 71 | 1007.5 |
| 20260508221911 | 61 | 226 | 2.6 | 7.0 | 0.00 | 0.00 | 0.00 | 70 | 1007.5 |
| 20260508220909 | 61 | 231 | 3.5 | 7.0 | 0.00 | 0.00 | 0.00 | 69 | 1007.1 |
| 20260508215908 | 61 | 244 | 2.6 | 7.0 | 0.00 | 0.00 | 0.00 | 67 | 1007.1 |
| 20260508214834 | 61 | 250 | 3.5 | 7.8 | 0.00 | 0.00 | 0.00 | 67 | 1007.1 |
| 20260508213832 | 62 | 229 | 2.6 | 7.8 | 0.00 | 0.00 | 0.00 | 64 | 1007.5 |
| 20260508212759 | 62 | 235 | 1.7 | 5.2 | 0.00 | 0.00 | 0.00 | 66 | 1007.5 |
| 20260508211726 | 62 | 232 | 2.6 | 6.1 | 0.00 | 0.00 | 0.00 | 65 | 1007.1 |
| 20260508210724 | 62 | 230 | 1.7 | 6.1 | 0.00 | 0.00 | 0.00 | 65 | 1007.5 |
| 20260508205722 | 62 | 247 | 2.6 | 6.1 | 0.00 | 0.00 | 0.00 | 63 | 1007.5 |
| 20260508204720 | 62 | 238 | 2.6 | 6.1 | 0.00 | 0.00 | 0.00 | 63 | 1007.5 |
| 20260508203720 | 61 | 251 | 1.7 | 6.1 | 0.00 | 0.00 | 0.00 | 63 | 1007.8 |
| 20260508202718 | 61 | 235 | 2.6 | 7.0 | 0.00 | 0.00 | 0.00 | 65 | 1007.8 |
| 20260508201716 | 60 | 225 | 3.5 | 7.0 | 0.00 | 0.00 | 0.00 | 67 | 1008.1 |
| 20260508200714 | 61 | 228 | 2.6 | 7.0 | 0.00 | 0.00 | 0.00 | 69 | 1008.1 |
| 20260508195713 | 62 | 229 | 3.5 | 7.0 | 0.00 | 0.00 | 0.00 | 68 | 1008.5 |
| 20260508194537 | 62 | 229 | 2.6 | 6.1 | 0.00 | 0.00 | 0.00 | 68 | 1008.5 |
| 20260508193535 | 62 | 221 | 2.6 | 9.6 | 0.00 | 0.00 | 0.00 | 67 | 1008.8 |
| 20260508192534 | 62 | 217 | 1.7 | 9.6 | 0.00 | 0.00 | 0.00 | 67 | 1008.8 |
| 20260508191500 | 63 | 228 | 2.6 | 6.1 | 0.00 | 0.00 | 0.00 | 65 | 1008.8 |
| 20260508190459 | 63 | 228 | 2.6 | 6.1 | 0.00 | 0.00 | 0.00 | 64 | 1009.1 |
| 20260508185459 | 63 | 214 | 2.6 | 6.1 | 0.00 | 0.00 | 0.00 | 60 | 1009.1 |
| 20260508184457 | 64 | 233 | 0.0 | 7.0 | 0.00 | 0.00 | 0.00 | 57 | 1009.5 |
| 20260508183456 | 63 | 236 | 1.7 | 9.6 | 0.00 | 0.00 | 0.00 | 54 | 1009.5 |
| 20260508182455 | 63 | 232 | 3.5 | 9.6 | 0.00 | 0.00 | 0.00 | 52 | 1009.5 |
| 20260508181453 | 62 | 235 | 1.7 | 7.8 | 0.00 | 0.00 | 0.00 | 53 | 1009.5 |
| 20260508180451 | 63 | 219 | 4.3 | 8.7 | 0.00 | 0.00 | 0.00 | 53 | 1009.5 |
| 20260508175449 | 63 | 220 | 4.3 | 8.7 | 0.00 | 0.00 | 0.00 | 55 | 1009.8 |
| 20260508174448 | 63 | 243 | 2.6 | 7.0 | 0.00 | 0.00 | 0.00 | 56 | 1009.8 |
| 20260508173446 | 63 | 221 | 2.6 | 7.0 | 0.00 | 0.00 | 0.00 | 60 | 1010.2 |
| 20260508172446 | 63 | 225 | 1.7 | 6.1 | 0.00 | 0.00 | 0.00 | 58 | 1010.2 |
| 20260508171445 | 62 | 229 | 1.7 | 6.1 | 0.00 | 0.00 | 0.00 | 61 | 1010.2 |
| 20260508170444 | 62 | 230 | 1.7 | 6.1 | 0.00 | 0.00 | 0.00 | 61 | 1010.5 |
| 20260508165442 | 61 | 185 | 1.7 | 7.0 | 0.00 | 0.00 | 0.00 | 62 | 1010.5 |
| 20260508164441 | 62 | 261 | 3.5 | 7.0 | 0.00 | 0.00 | 0.00 | 62 | 1010.5 |
| 20260508163439 | 61 | 255 | 0.0 | 5.2 | 0.00 | 0.00 | 0.00 | 61 | 1010.8 |
| 20260508162437 | 61 | 263 | 0.0 | 0.0 | 0.00 | 0.00 | 0.00 | 66 | 1010.8 |
| 20260508161435 | 60 | 265 | 0.0 | 0.0 | 0.00 | 0.00 | 0.00 | 68 | 1010.8 |
| 20260508160434 | 59 | 264 | 0.0 | 5.2 | 0.00 | 0.00 | 0.00 | 72 | 1011.2 |
| 20260508155401 | 59 | 267 | 1.7 | 5.2 | 0.00 | 0.00 | 0.00 | 70 | 1011.2 |
| 20260508154400 | 58 | 271 | 1.7 | 5.2 | 0.00 | 0.00 | 0.00 | 73 | 1011.5 |
| 20260508153358 | 57 | 258 | 1.7 | 4.3 | 0.00 | 0.00 | 0.00 | 73 | 1011.5 |
| 20260508152356 | 56 | 227 | 1.7 | 4.3 | 0.00 | 0.00 | 0.00 | 75 | 1011.5 |
| 20260508151355 | 56 | 225 | 0.9 | 4.3 | 0.00 | 0.00 | 0.00 | 75 | 1011.5 |
| 20260508150353 | 55 | 224 | 1.7 | 4.3 | 0.00 | 0.00 | 0.00 | 78 | 1011.5 |
| 20260508145352 | 55 | 223 | 1.7 | 3.5 | 0.00 | 0.00 | 0.00 | 78 | 1011.5 |
| 20260508144352 | 54 | 240 | 1.7 | 2.6 | 0.00 | 0.00 | 0.00 | 79 | 1011.5 |
| 20260508143248 | 54 | 217 | 0.0 | 0.0 | 0.00 | 0.00 | 0.00 | 79 | 1011.5 |
| 20260508142247 | 53 | 262 | 0.0 | 0.0 | 0.00 | 0.00 | 0.00 | 79 | 1011.5 |
| 20260508141245 | 53 | 255 | 0.0 | 0.0 | 0.00 | 0.00 | 0.00 | 80 | 1011.5 |
| 20260508140244 | 52 | 264 | 0.0 | 0.0 | 0.00 | 0.00 | 0.00 | 81 | 1011.5 |
| 20260508135211 | 52 | 288 | 0.0 | 0.0 | 0.00 | 0.00 | 0.00 | 82 | 1011.5 |
| 20260508134209 | 52 | 254 | 0.0 | 0.0 | 0.00 | 0.00 | 0.00 | 82 | 1011.5 |
| 20260508133208 | 52 | 269 | 0.0 | 3.5 | 0.00 | 0.00 | 0.00 | 81 | 1011.5 |
| 20260508132206 | 52 | 252 | 0.0 | 3.5 | 0.00 | 0.00 | 0.00 | 81 | 1011.5 |
| 20260508131204 | 51 | 259 | 0.0 | 0.0 | 0.00 | 0.00 | 0.00 | 84 | 1011.5 |
| 20260508130203 | 50 | 246 | 0.0 | 0.0 | 0.00 | 0.00 | 0.00 | 84 | 1011.9 |
| 20260508125130 | 50 | 255 | 0.0 | 0.0 | 0.00 | 0.00 | 0.00 | 86 | 1011.9 |
| 20260508124128 | 49 | 288 | 0.0 | 2.6 | 0.00 | 0.00 | 0.00 | 89 | 1011.9 |
| 20260508123127 | 48 | 240 | 0.0 | 3.5 | 0.00 | 0.00 | 0.00 | 89 | 1011.9 |
| 20260508122125 | 47 | 255 | 1.7 | 3.5 | 0.00 | 0.00 | 0.00 | 91 | 1011.9 |
| 20260508121123 | 46 | 247 | 0.0 | 0.0 | 0.00 | 0.00 | 0.00 | 92 | 1011.9 |
| 20260508120122 | 45 | 269 | 0.0 | 0.0 | 0.00 | 0.00 | 0.00 | 93 | 1011.5 |
| 20260508115121 | 45 | 231 | 0.0 | 0.0 | 0.00 | 0.00 | 0.00 | 93 | 1011.5 |
| 20260508114119 | 44 | 253 | 0.0 | 0.0 | 0.00 | 0.00 | 0.00 | 93 | 1011.5 |
| 20260508113046 | 44 | 253 | 0.0 | 0.0 | 0.00 | 0.00 | 0.00 | 93 | 1011.5 |
| 20260508112044 | 44 | 253 | 0.0 | 0.0 | 0.00 | 0.00 | 0.00 | 93 | 1011.2 |
| 20260508111043 | 44 | 252 | 0.0 | 0.0 | 0.00 | 0.00 | 0.00 | 93 | 1011.2 |
| 20260508110010 | 44 | 252 | 0.0 | 0.0 | 0.00 | 0.00 | 0.00 | 92 | 1010.8 |
| 20260508105007 | 44 | 252 | 0.0 | 0.0 | 0.00 | 0.00 | 0.00 | 93 | 1010.8 |
| 20260508104006 | 44 | 252 | 0.0 | 0.0 | 0.00 | 0.00 | 0.00 | 93 | 1010.8 |
| 20260508103005 | 43 | 252 | 0.0 | 0.0 | 0.00 | 0.00 | 0.00 | 93 | 1010.8 |
| 20260508102003 | 43 | 252 | 0.0 | 0.0 | 0.00 | 0.00 | 0.00 | 93 | 1010.8 |
| 20260508100930 | 43 | 252 | 0.0 | 0.0 | 0.00 | 0.00 | 0.00 | 93 | 1010.8 |
| 20260508095928 | 43 | 245 | 0.0 | 0.0 | 0.00 | 0.00 | 0.00 | 93 | 1010.8 |
| 20260508094928 | 43 | 245 | 0.0 | 0.0 | 0.00 | 0.00 | 0.00 | 93 | 1010.8 |
| 20260508093926 | 43 | 249 | 0.0 | 0.0 | 0.00 | 0.00 | 0.00 | 93 | 1010.8 |
| 20260508092853 | 42 | 249 | 0.0 | 0.0 | 0.00 | 0.00 | 0.00 | 93 | 1010.8 |
| 20260508091852 | 42 | 249 | 0.0 | 0.0 | 0.00 | 0.00 | 0.00 | 93 | 1010.8 |
| 20260508090851 | 42 | 249 | 0.0 | 0.0 | 0.00 | 0.00 | 0.00 | 93 | 1010.8 |
| 20260508085849 | 42 | 249 | 0.0 | 0.0 | 0.00 | 0.00 | 0.00 | 93 | 1010.8 |
| 20260508084816 | 41 | 249 | 0.0 | 0.0 | 0.00 | 0.00 | 0.00 | 92 | 1010.8 |
| 20260508083816 | 41 | 249 | 0.0 | 0.0 | 0.00 | 0.00 | 0.00 | 91 | 1010.8 |
| 20260508082743 | 42 | 250 | 0.0 | 0.0 | 0.00 | 0.00 | 0.00 | 91 | 1010.8 |
| 20260508081741 | 43 | 250 | 0.0 | 0.0 | 0.00 | 0.00 | 0.00 | 91 | 1010.8 |
| 20260508080740 | 44 | 250 | 0.0 | 0.0 | 0.00 | 0.00 | 0.00 | 91 | 1010.8 |
| 20260508075739 | 44 | 250 | 0.0 | 0.0 | 0.00 | 0.00 | 0.00 | 91 | 1010.8 |
| 20260508074706 | 44 | 250 | 0.0 | 0.0 | 0.00 | 0.00 | 0.00 | 91 | 1011.2 |
| 20260508073706 | 45 | 249 | 0.0 | 0.0 | 0.00 | 0.00 | 0.00 | 92 | 1011.2 |
| 20260508072634 | 44 | 250 | 0.0 | 0.0 | 0.00 | 0.00 | 0.00 | 91 | 1011.2 |
| 20260508071633 | 45 | 250 | 0.0 | 0.0 | 0.00 | 0.00 | 0.00 | 91 | 1011.2 |
| 20260508070631 | 44 | 240 | 0.0 | 0.0 | 0.00 | 0.00 | 0.00 | 91 | 1011.2 |
| 20260508065630 | 44 | 240 | 0.0 | 0.0 | 0.00 | 0.00 | 0.00 | 91 | 1011.2 |
| 20260508064558 | 44 | 236 | 0.0 | 0.0 | 0.00 | 0.00 | 0.00 | 91 | 1011.2 |
| 20260508063556 | 44 | 217 | 0.0 | 0.0 | 0.00 | 0.00 | 0.00 | 91 | 1011.5 |
| 20260508062555 | 44 | 221 | 0.0 | 0.0 | 0.00 | 0.00 | 0.00 | 90 | 1011.2 |
| 20260508061554 | 44 | 219 | 0.0 | 0.0 | 0.00 | 0.00 | 0.00 | 89 | 1011.5 |
| 20260508060553 | 44 | 219 | 0.0 | 0.0 | 0.00 | 0.00 | 0.00 | 89 | 1011.5 |
| 20260508055551 | 44 | 219 | 0.0 | 0.0 | 0.00 | 0.00 | 0.00 | 88 | 1011.5 |
| 20260508054549 | 44 | 219 | 0.0 | 0.0 | 0.00 | 0.00 | 0.00 | 88 | 1011.5 |
| 20260508053546 | 45 | 219 | 0.0 | 0.0 | 0.00 | 0.00 | 0.00 | 87 | 1011.5 |
| 20260508052545 | 45 | 219 | 0.0 | 0.0 | 0.00 | 0.00 | 0.00 | 86 | 1011.5 |
| 20260508051543 | 45 | 219 | 0.0 | 0.0 | 0.00 | 0.00 | 0.00 | 85 | 1011.9 |
| 20260508050541 | 46 | 222 | 0.0 | 0.0 | 0.00 | 0.00 | 0.00 | 85 | 1011.9 |
| 20260508045540 | 46 | 236 | 0.0 | 0.0 | 0.00 | 0.00 | 0.00 | 84 | 1011.9 |
| 20260508044538 | 46 | 216 | 0.0 | 2.6 | 0.00 | 0.00 | 0.00 | 83 | 1011.9 |
| 20260508043536 | 47 | 231 | 1.7 | 2.6 | 0.00 | 0.00 | 0.00 | 82 | 1011.9 |
| 20260508042536 | 47 | 232 | 0.9 | 4.3 | 0.00 | 0.00 | 0.00 | 80 | 1011.9 |
| 20260508041535 | 47 | 244 | 0.9 | 4.3 | 0.00 | 0.00 | 0.00 | 80 | 1011.9 |
| 20260508040534 | 48 | 225 | 1.7 | 4.3 | 0.00 | 0.00 | 0.00 | 78 | 1011.9 |
| 20260508035532 | 48 | 232 | 1.7 | 3.5 | 0.00 | 0.00 | 0.00 | 77 | 1011.9 |
| 20260508034531 | 48 | 225 | 1.7 | 3.5 | 0.00 | 0.00 | 0.00 | 78 | 1011.9 |
| 20260508033530 | 48 | 217 | 0.9 | 2.6 | 0.00 | 0.00 | 0.00 | 77 | 1011.9 |
| 20260508032528 | 48 | 225 | 0.9 | 1.7 | 0.00 | 0.00 | 0.00 | 78 | 1011.9 |
| 20260508031526 | 48 | 217 | 0.0 | 0.0 | 0.00 | 0.00 | 0.00 | 77 | 1011.9 |
| 20260508030453 | 48 | 218 | 0.0 | 1.7 | 0.00 | 0.00 | 0.00 | 76 | 1012.2 |
| 20260508025451 | 48 | 218 | 0.0 | 1.7 | 0.00 | 0.00 | 0.00 | 76 | 1012.2 |
| 20260508024449 | 47 | 219 | 0.9 | 1.7 | 0.00 | 0.00 | 0.00 | 76 | 1012.2 |
| 20260508023447 | 47 | 249 | 0.9 | 1.7 | 0.00 | 0.00 | 0.00 | 76 | 1012.2 |
| 20260508022445 | 47 | 213 | 0.9 | 1.7 | 0.00 | 0.00 | 0.00 | 76 | 1012.2 |
| 20260508021444 | 47 | 213 | 0.9 | 1.7 | 0.00 | 0.00 | 0.00 | 75 | 1012.2 |
| 20260508020442 | 47 | 219 | 0.9 | 0.9 | 0.00 | 0.00 | 0.00 | 74 | 1012.2 |
| 20260508015441 | 48 | 224 | 0.0 | 0.0 | 0.00 | 0.00 | 0.00 | 73 | 1011.9 |
| 20260508014439 | 48 | 224 | 0.0 | 0.0 | 0.00 | 0.00 | 0.00 | 72 | 1012.2 |
| 20260508013437 | 48 | 224 | 0.0 | 0.0 | 0.00 | 0.00 | 0.00 | 72 | 1011.9 |
| 20260508012436 | 49 | 224 | 0.0 | 2.6 | 0.00 | 0.00 | 0.00 | 70 | 1011.9 |
| 20260508011434 | 49 | 225 | 0.9 | 2.6 | 0.00 | 0.00 | 0.00 | 69 | 1011.9 |
| 20260508010430 | 49 | 223 | 1.7 | 4.3 | 0.00 | 0.00 | 0.00 | 69 | 1011.9 |
| 20260508005357 | 50 | 222 | 1.7 | 4.3 | 0.00 | 0.00 | 0.00 | 67 | 1011.5 |
| 20260508004324 | 51 | 229 | 1.7 | 5.2 | 0.00 | 0.00 | 0.00 | 65 | 1011.5 |
| 20260508003322 | 51 | 227 | 1.7 | 7.0 | 0.00 | 0.00 | 0.00 | 63 | 1011.5 |